FW4339 Weather Reports


Display with metric or nautical units.
time (UTC)temp
F
wind
direction
speed
MPH
gust
MPH
rain 1hr
in
rain 24hr
in
rain mn
in
humidity
%
barometer
mb
20260905093003 92 0.0 0.0 0.00 0.00 0.00 30 1015.3
20260905091600 91 0.0 0.0 0.00 0.00 0.00 31 1015.3
20260905090056 90 0.0 0.0 0.00 0.00 0.00 30 1015.4
20260905084603 90 0.0 0.0 0.00 0.00 0.00 31 1015.1
20260905083051 90 0.0 0.0 0.00 0.00 0.00 33 1015.3
20260905081550 90 0.0 0.0 0.00 0.00 0.00 32 1015.3
20260905080056 89 0.0 0.0 0.00 0.00 0.00 33 1015.1
20260905074546 88 0.0 0.0 0.00 0.00 0.00 34 1015.1
20260905073045 87 0.0 0.0 0.00 0.00 0.00 36 1015.0
20260905071535 87 0.0 0.0 0.00 0.00 0.00 37 1015.0
20260905070031 86 0.0 0.0 0.00 0.00 0.00 38 1015.0
20260905064529 86 0.0 0.0 0.00 0.00 0.00 38 1014.9
20260905063025 85 0.0 0.0 0.00 0.00 0.00 39 1014.9
20260905061525 84 0.0 0.0 0.00 0.00 0.00 40 1015.0
20260905060025 82 0.0 0.0 0.00 0.00 0.00 41 1015.0
20260905054511 82 0.0 0.0 0.00 0.00 0.00 41 1015.0
20260905053009 81 0.0 0.0 0.00 0.00 0.00 45 1014.9
20260905051503 80 0.0 0.0 0.00 0.00 0.00 47 1014.8
20260905050059 80 0.0 0.0 0.00 0.00 0.00 47 1014.6
20260905044600 79 0.0 0.0 0.00 0.00 0.00 48 1014.5
20260905043100 79 0.0 0.0 0.00 0.00 0.00 48 1014.4
20260905041600 78 0.0 0.0 0.00 0.00 0.00 49 1014.3
20260905040104 78 0.0 0.0 0.00 0.00 0.00 49 1013.9
20260905034610 78 0.0 0.0 0.00 0.00 0.00 49 1013.7
20260905033114 78 0.0 0.0 0.00 0.00 0.00 49 1013.6
20260905031606 79 0.0 0.0 0.00 0.00 0.00 48 1013.6
20260905030059 79 0.0 0.0 0.00 0.00 0.00 47 1013.7
20260905024553 79 0.0 0.0 0.00 0.00 0.00 46 1013.7
20260905023106 79 0.0 0.0 0.00 0.00 0.00 45 1013.7
20260905021552 79 0.0 0.0 0.00 0.00 0.00 46 1013.7
20260905020051 79 0.0 0.0 0.00 0.00 0.00 46 1013.7
20260905014553 79 0.0 0.0 0.00 0.00 0.00 48 1013.7
20260905013051 79 0.0 0.0 0.00 0.00 0.00 48 1013.7
20260905011551 79 0.0 0.0 0.00 0.00 0.00 48 1013.9
20260905010104 79 0.0 0.0 0.00 0.00 0.00 48 1013.8
20260905004548 79 0.0 0.0 0.00 0.00 0.00 48 1014.0
20260905003047 79 0.0 0.0 0.00 0.00 0.00 47 1014.0
20260905001555 79 0.0 0.0 0.00 0.00 0.00 47 1014.0
20260905000051 78 0.0 0.0 0.00 0.00 0.00 47 1014.0
20260904234546 79 0.0 0.0 0.00 0.00 0.00 46 1014.1
20260904233048 79 0.0 0.0 0.00 0.00 0.00 45 1014.1
20260904231544 79 0.0 0.0 0.00 0.00 0.00 43 1014.3
20260904224542 79 0.0 0.0 0.00 0.00 0.00 41 1014.3
20260904223044 80 0.0 0.0 0.00 0.00 0.00 40 1014.2
20260904221545 80 0.0 0.0 0.00 0.00 0.00 40 1014.2
20260904220045 80 0.0 0.0 0.00 0.00 0.00 40 1014.2
20260904214539 80 0.0 0.0 0.00 0.00 0.00 40 1014.2
20260904213040 79 0.0 0.0 0.00 0.00 0.00 41 1014.3
20260904211535 79 0.0 0.0 0.00 0.00 0.00 42 1014.3
20260904210035 79 0.0 0.0 0.00 0.00 0.00 42 1014.3
20260904204535 79 0.0 0.0 0.00 0.00 0.00 44 1014.2
20260904203033 79 0.0 0.0 0.00 0.00 0.00 46 1014.3
20260904201532 79 0.0 0.0 0.00 0.00 0.00 47 1014.4
20260904200043 79 0.0 0.0 0.00 0.00 0.00 45 1014.2
20260904194535 79 0.0 0.0 0.00 0.00 0.00 45 1014.2
20260904193037 79 0.0 0.0 0.00 0.00 0.00 45 1014.2
20260904191538 79 0.0 0.0 0.00 0.00 0.00 49 1014.2
20260904190029 81 0.0 0.0 0.00 0.00 0.00 39 1014.1
20260904184530 82 0.0 0.0 0.00 0.00 0.00 39 1014.1
20260904183029 82 0.0 0.0 0.00 0.00 0.00 39 1013.9
20260904181534 82 0.0 0.0 0.00 0.00 0.00 39 1013.8
20260904180026 82 0.0 0.0 0.00 0.00 0.00 39 1013.5
20260904174528 82 0.0 0.0 0.00 0.00 0.00 39 1013.2
20260904173025 82 0.0 0.0 0.00 0.00 0.00 40 1013.0
20260904171525 82 0.0 0.0 0.00 0.00 0.00 41 1012.9
20260904170025 82 0.0 0.0 0.00 0.00 0.00 42 1012.8
20260904164524 82 0.0 0.0 0.00 0.00 0.00 42 1012.8
20260904163024 83 0.0 0.0 0.00 0.00 0.00 43 1012.7
20260904161524 83 0.0 0.0 0.00 0.00 0.00 42 1012.8
20260904160025 84 0.0 0.0 0.00 0.00 0.00 40 1012.6
20260904154526 86 0.0 0.0 0.00 0.00 0.00 38 1012.6
20260904153043 86 0.0 0.0 0.00 0.00 0.00 38 1012.5
20260904151526 88 0.0 0.0 0.00 0.00 0.00 37 1012.5
20260904150035 89 0.0 0.0 0.00 0.00 0.00 35 1012.5
20260904144524 90 0.0 0.0 0.00 0.00 0.00 34 1012.5
20260904143024 91 0.0 0.0 0.00 0.00 0.00 34 1012.4
20260904141522 91 0.0 0.0 0.00 0.00 0.00 33 1012.4
20260904140032 92 0.0 0.0 0.00 0.00 0.00 31 1012.4
20260904134526 93 0.0 0.0 0.00 0.00 0.00 31 1012.3
20260904133023 93 0.0 0.0 0.00 0.00 0.00 31 1012.3
20260904131536 93 0.0 0.0 0.00 0.00 0.00 32 1012.6
20260904130020 93 0.0 0.0 0.00 0.00 0.00 32 1012.5
20260904124521 93 0.0 0.0 0.00 0.00 0.00 31 1012.7
20260904123020 95 0.0 0.0 0.00 0.00 0.00 30 1012.8
20260904121520 95 0.0 0.0 0.00 0.00 0.00 30 1012.8
20260904120021 95 0.0 0.0 0.00 0.00 0.00 31 1012.9
20260904114518 93 0.0 0.0 0.00 0.00 0.00 33 1012.9
20260904113033 92 0.0 0.0 0.00 0.00 0.00 35 1012.7
20260904111517 92 0.0 0.0 0.00 0.00 0.00 34 1012.9
20260904110016 93 0.0 0.0 0.00 0.00 0.00 34 1012.9
20260904104517 93 0.0 0.0 0.00 0.00 0.00 35 1012.9
20260904103014 90 0.0 0.0 0.00 0.00 0.00 38 1013.2
20260904101513 86 0.0 0.0 0.00 0.00 0.00 41 1013.2
20260904100017 88 0.0 0.0 0.00 0.00 0.00 36 1013.3
20260904094526 91 0.0 0.0 0.00 0.00 0.00 36 1013.2